• In Germany
  • List of Countries
  • For 7 days
  • Water Temperature
  • Satellite Maps
  • Weather Map
  • Weather Widgets
  • user-avatar
    Login

    Hourly Weather Sumgayit

    Today, 23 October, Tuesday

    Time Temperature Precipitation Wind Pressure Humidity
    00:00 +18°C° 0 mm 2 mps 740 mmHg 71%
    01:00 +18°C° 0 mm 2 mps 740 mmHg 69%
    02:00 +18°C° 0 mm 2 mps 740 mmHg 69%
    03:00 +17°C° 0 mm 2 mps 740 mmHg 69%
    04:00 +17°C° 0 mm 2 mps 740 mmHg 70%
    05:00 +17°C° 0 mm 2 mps 740 mmHg 71%
    06:00 +16°C° 0 mm 2 mps 740 mmHg 72%
    07:00 +17°C° 0 mm 2 mps 740 mmHg 67%
    08:00 +18°C° 0 mm 2 mps 741 mmHg 63%
    09:00 +19°C° 0 mm 2 mps 741 mmHg 58%
    10:00 +20°C° 0 mm 2 mps 741 mmHg 54%
    11:00 +21°C° 0 mm 2 mps 741 mmHg 50%
    12:00 +23°C° 0 mm 2 mps 740 mmHg 46%
    13:00 +23°C° 0 mm 2 mps 740 mmHg 45%
    14:00 +23°C° 0 mm 2 mps 740 mmHg 45%
    15:00 +22°C° 0 mm 3 mps 740 mmHg 44%
    16:00 +21°C° 0 mm 3 mps 740 mmHg 50%
    17:00 +20°C° 0 mm 3 mps 740 mmHg 56%
    18:00 +19°C° 0 mm 3 mps 740 mmHg 62%
    19:00 +19°C° 0 mm 2 mps 740 mmHg 66%
    20:00 +18°C° 0 mm 2 mps 740 mmHg 70%
    21:00 +18°C° 0 mm 2 mps 740 mmHg 74%
    22:00 +18°C° 0 mm 2 mps 740 mmHg 75%
    23:00 +18°C° 0 mm 1 mps 739 mmHg 76%

    Tomorrow, 24 October, Wednesday

    Time Temperature Precipitation Wind Pressure Humidity
    00:00 +18°C° 0 mm 1 mps 739 mmHg 77%
    01:00 +18°C° 0 mm 1 mps 739 mmHg 76%
    02:00 +17°C° 0 mm 2 mps 738 mmHg 75%
    03:00 +17°C° 0 mm 2 mps 738 mmHg 75%
    04:00 +17°C° 0 mm 2 mps 738 mmHg 74%
    05:00 +17°C° 0 mm 3 mps 738 mmHg 74%
    06:00 +17°C° 0 mm 3 mps 737 mmHg 73%
    07:00 +18°C° 0 mm 4 mps 737 mmHg 69%
    08:00 +19°C° 0 mm 5 mps 737 mmHg 66%
    09:00 +20°C° 0 mm 5 mps 737 mmHg 62%
    10:00 +21°C° 0 mm 6 mps 737 mmHg 56%
    11:00 +22°C° 0 mm 7 mps 736 mmHg 49%
    12:00 +23°C° 0 mm 7 mps 736 mmHg 43%
    13:00 +23°C° 0 mm 7 mps 735 mmHg 41%
    14:00 +24°C° 0 mm 7 mps 734 mmHg 39%
    15:00 +24°C° 0 mm 7 mps 734 mmHg 37%
    16:00 +23°C° 0 mm 7 mps 733 mmHg 40%
    17:00 +22°C° 0 mm 7 mps 733 mmHg 43%
    18:00 +22°C° 0 mm 7 mps 733 mmHg 46%
    19:00 +21°C° 0 mm 7 mps 732 mmHg 47%
    20:00 +21°C° 0 mm 7 mps 732 mmHg 49%
    21:00 +21°C° 0 mm 7 mps 732 mmHg 50%
    22:00 +21°C° 0 mm 6 mps 731 mmHg 50%
    23:00 +21°C° 0 mm 6 mps 731 mmHg 49%

    Day after tomorrow, 25 October, Thursday

    Time Temperature Precipitation Wind Pressure Humidity
    00:00 +20°C° 0 mm 6 mps 730 mmHg 49%
    01:00 +20°C° 0 mm 6 mps 730 mmHg 46%
    02:00 +20°C° 0 mm 6 mps 729 mmHg 43%
    03:00 +20°C° 0 mm 7 mps 729 mmHg 40%
    04:00 +20°C° 0 mm 7 mps 728 mmHg 40%
    05:00 +20°C° 0 mm 8 mps 728 mmHg 40%
    06:00 +18°C° 0 mm 9 mps 728 mmHg 39%
    07:00 +21°C° 0 mm 10 mps 728 mmHg 38%
    08:00 +22°C° 0 mm 11 mps 728 mmHg 36%
    09:00 +23°C° 0 mm 11 mps 728 mmHg 34%
    10:00 +24°C° 0 mm 11 mps 727 mmHg 32%
    11:00 +26°C° 0 mm 11 mps 727 mmHg 31%
    12:00 +27°C° 0 mm 11 mps 727 mmHg 29%
    13:00 +28°C° 0 mm 10 mps 726 mmHg 29%
    14:00 +28°C° 0 mm 9 mps 726 mmHg 28%
    15:00 +28°C° 0 mm 8 mps 726 mmHg 28%
    16:00 +27°C° 0 mm 6 mps 726 mmHg 30%
    17:00 +26°C° 0 mm 4 mps 726 mmHg 32%
    18:00 +25°C° 0 mm 2 mps 726 mmHg 35%
    19:00 +24°C° 0 mm 2 mps 727 mmHg 40%
    20:00 +22°C° 0 mm 3 mps 727 mmHg 45%
    21:00 +22°C° 0 mm 3 mps 727 mmHg 50%
    22:00 +21°C° 0 mm 5 mps 728 mmHg 56%
    23:00 +18°C° 0 mm 7 mps 729 mmHg 61%

    26 October, Friday

    Time Temperature Precipitation Wind Pressure Humidity
    00:00 +17°C° 0 mm 9 mps 730 mmHg 66%
    01:00 +17°C° 0 mm 10 mps 730 mmHg 69%
    02:00 +16°C° 0 mm 10 mps 730 mmHg 72%
    03:00 +14°C° 0 mm 11 mps 731 mmHg 74%
    04:00 +13°C° 0 mm 10 mps 731 mmHg 74%
    05:00 +13°C° 0 mm 10 mps 732 mmHg 74%
    06:00 +13°C° 0 mm 10 mps 733 mmHg 73%
    07:00 +13°C° 0 mm 10 mps 733 mmHg 70%
    08:00 +13°C° 0 mm 10 mps 733 mmHg 68%
    09:00 +14°C° 0 mm 10 mps 734 mmHg 65%
    10:00 +14°C° 0 mm 10 mps 734 mmHg 65%
    11:00 +14°C° 0 mm 10 mps 734 mmHg 64%
    12:00 +14°C° 0 mm 10 mps 734 mmHg 64%
    13:00 +13°C° 0.3 mm 10 mps 734 mmHg 66%
    14:00 +12°C° 0.3 mm 10 mps 734 mmHg 68%
    15:00 +11°C° 0.3 mm 11 mps 734 mmHg 70%
    16:00 +11°C° 0.8 mm 10 mps 735 mmHg 70%
    17:00 +11°C° 0.8 mm 9 mps 736 mmHg 70%
    18:00 +11°C° 0.8 mm 9 mps 737 mmHg 70%
    19:00 +11°C° 0.9 mm 8 mps 738 mmHg 72%
    20:00 +11°C° 0.9 mm 6 mps 738 mmHg 73%
    21:00 +12°C° 0.9 mm 5 mps 739 mmHg 75%
    22:00 +12°C° 0 mm 5 mps 739 mmHg 76%
    23:00 +12°C° 0 mm 4 mps 739 mmHg 76%

    27 October, Saturday

    Time Temperature Precipitation Wind Pressure Humidity
    00:00 +12°C° 0 mm 3 mps 740 mmHg 77%
    01:00 +12°C° 0 mm 4 mps 740 mmHg 74%
    02:00 +11°C° 0 mm 4 mps 740 mmHg 70%
    03:00 +11°C° 0 mm 4 mps 740 mmHg 67%
    04:00 +11°C° 0 mm 4 mps 741 mmHg 63%
    05:00 +11°C° 0 mm 4 mps 742 mmHg 60%
    06:00 +11°C° 0 mm 4 mps 742 mmHg 56%
    07:00 +12°C° 0 mm 5 mps 743 mmHg 58%
    08:00 +13°C° 0 mm 6 mps 744 mmHg 60%
    09:00 +14°C° 0 mm 7 mps 745 mmHg 62%
    10:00 +14°C° 0 mm 7 mps 746 mmHg 56%
    11:00 +15°C° 0 mm 6 mps 746 mmHg 49%
    12:00 +16°C° 0 mm 6 mps 747 mmHg 43%
    13:00 +16°C° 0 mm 5 mps 747 mmHg 42%
    14:00 +16°C° 0 mm 5 mps 748 mmHg 42%
    15:00 +16°C° 0 mm 5 mps 748 mmHg 41%
    16:00 +15°C° 0 mm 5 mps 749 mmHg 47%
    17:00 +15°C° 0 mm 5 mps 749 mmHg 52%
    18:00 +14°C° 0 mm 5 mps 750 mmHg 58%
    19:00 +14°C° 0 mm 4 mps 750 mmHg 60%
    20:00 +13°C° 0 mm 3 mps 751 mmHg 62%
    21:00 +14°C° 0 mm 2 mps 751 mmHg 64%
    22:00 +14°C° 0 mm 2 mps 751 mmHg 66%
    23:00 +14°C° 0 mm 2 mps 751 mmHg 68%

    28 October, Sunday

    Time Temperature Precipitation Wind Pressure Humidity
    00:00 +13°C° 0 mm 2 mps 751 mmHg 69%
    01:00 +13°C° 0 mm 2 mps 751 mmHg 70%
    02:00 +13°C° 0 mm 2 mps 751 mmHg 71%
    03:00 +13°C° 0 mm 2 mps 751 mmHg 71%
    04:00 +13°C° 0 mm 2 mps 751 mmHg 73%
    05:00 +12°C° 0 mm 3 mps 751 mmHg 74%
    06:00 +12°C° 0 mm 3 mps 751 mmHg 75%
    07:00 +13°C° 0 mm 4 mps 752 mmHg 73%
    08:00 +14°C° 0 mm 5 mps 752 mmHg 70%
    09:00 +15°C° 0 mm 5 mps 752 mmHg 68%
    10:00 +16°C° 0 mm 6 mps 752 mmHg 65%
    11:00 +16°C° 0 mm 6 mps 751 mmHg 63%
    12:00 +17°C° 0 mm 7 mps 751 mmHg 61%
    13:00 +17°C° 0 mm 7 mps 751 mmHg 60%
    14:00 +17°C° 0 mm 6 mps 750 mmHg 60%
    15:00 +17°C° 0 mm 6 mps 750 mmHg 59%
    16:00 +17°C° 0 mm 6 mps 750 mmHg 62%
    17:00 +16°C° 0 mm 6 mps 750 mmHg 64%
    18:00 +16°C° 0 mm 5 mps 750 mmHg 66%
    19:00 +15°C° 0 mm 5 mps 750 mmHg 68%
    20:00 +15°C° 0 mm 5 mps 750 mmHg 69%
    21:00 +15°C° 0 mm 5 mps 750 mmHg 70%
    22:00 +15°C° 0 mm 5 mps 750 mmHg 71%
    23:00 +14°C° 0 mm 5 mps 750 mmHg 72%

    29 October, Monday

    Time Temperature Precipitation Wind Pressure Humidity
    00:00 +14°C° 0 mm 5 mps 750 mmHg 73%
    01:00 +14°C° 0 mm 4 mps 750 mmHg 74%
    02:00 +14°C° 0 mm 4 mps 749 mmHg 76%
    03:00 +14°C° 0 mm 4 mps 749 mmHg 77%
    04:00 +14°C° 0 mm 4 mps 749 mmHg 78%
    05:00 +14°C° 0 mm 4 mps 749 mmHg 79%
    06:00 +13°C° 0 mm 4 mps 749 mmHg 80%
    07:00 +14°C° 0 mm 4 mps 750 mmHg 76%
    08:00 +15°C° 0 mm 4 mps 750 mmHg 72%
    09:00 +16°C° 0 mm 5 mps 750 mmHg 67%
    10:00 +17°C° 0 mm 5 mps 750 mmHg 64%
    11:00 +19°C° 0 mm 5 mps 749 mmHg 60%
    12:00 +20°C° 0 mm 5 mps 749 mmHg 56%
    13:00 +20°C° 0 mm 6 mps 749 mmHg 56%
    14:00 +20°C° 0 mm 6 mps 749 mmHg 56%
    15:00 +20°C° 0 mm 6 mps 749 mmHg 55%
    16:00 +19°C° 0 mm 6 mps 749 mmHg 60%
    17:00 +17°C° 0 mm 6 mps 749 mmHg 64%
    18:00 +17°C° 0 mm 5 mps 749 mmHg 69%
    19:00 +16°C° 0 mm 5 mps 749 mmHg 70%
    20:00 +16°C° 0 mm 5 mps 749 mmHg 71%
    21:00 +17°C° 0 mm 4 mps 749 mmHg 73%
    22:00 +15°C° 0 mm 4 mps 749 mmHg 73%
    23:00 +15°C° 0 mm 4 mps 749 mmHg 74%
    Show more